TimeEST,TemperatureF,Dew PointF,Humidity,Sea Level PressureIn,VisibilityMPH,Wind Direction,Wind SpeedMPH,Gust SpeedMPH,PrecipitationIn,Events,Conditions,WindDirDegrees,DateUTC
12:54 AM,61.0,55.9,83,30.17,10.0,SSW,10.4,-,N/A,,Clear,200,2012-12-05 05:54:00
1:54 AM,60.1,55.0,83,30.15,10.0,SSW,10.4,-,N/A,,Clear,210,2012-12-05 06:54:00
2:54 AM,59.0,54.0,83,30.14,10.0,SSW,10.4,-,N/A,,Clear,210,2012-12-05 07:54:00
3:54 AM,59.0,54.0,83,30.13,10.0,SSW,8.1,-,N/A,,Clear,210,2012-12-05 08:54:00
4:54 AM,59.0,54.0,83,30.12,10.0,SSW,9.2,-,N/A,,Clear,200,2012-12-05 09:54:00
5:54 AM,59.0,54.0,83,30.12,10.0,SSW,8.1,-,N/A,,Clear,210,2012-12-05 10:54:00
6:54 AM,57.9,54.0,87,30.13,9.0,SW,9.2,-,N/A,,Partly Cloudy,220,2012-12-05 11:54:00
7:54 AM,60.1,55.0,83,30.13,9.0,SSW,10.4,-,N/A,,Partly Cloudy,210,2012-12-05 12:54:00
9:54 AM,66.9,57.9,73,30.14,10.0,WSW,11.5,19.6,N/A,,Scattered Clouds,240,2012-12-05 14:54:00
10:54 AM,66.9,57.0,70,30.14,10.0,West,10.4,-,N/A,,Overcast,280,2012-12-05 15:54:00
11:41 AM,68.0,55.4,64,30.12,10.0,WNW,15.0,23.0,N/A,,Overcast,300,2012-12-05 16:41:00
11:54 AM,68.0,55.0,63,30.12,10.0,NW,15.0,-,N/A,,Overcast,310,2012-12-05 16:54:00
12:54 PM,68.0,54.0,61,30.11,10.0,NW,8.1,-,N/A,,Overcast,310,2012-12-05 17:54:00
1:54 PM,63.0,37.9,40,30.11,10.0,North,16.1,-,N/A,,Overcast,350,2012-12-05 18:54:00
2:05 PM,62.6,-9999,N/A,30.11,10.0,North,15.0,-,N/A,,Overcast,350,2012-12-05 19:05:00
2:23 PM,59.0,48.2,67,30.12,10.0,North,13.8,-,N/A,,Overcast,350,2012-12-05 19:23:00
2:54 PM,55.9,48.0,75,30.13,10.0,North,13.8,-,0.00,Rain,Light Rain,350,2012-12-05 19:54:00
3:54 PM,55.9,50.0,80,30.14,10.0,North,8.1,-,0.00,,Overcast,10,2012-12-05 20:54:00
4:43 PM,55.4,41.0,58,30.16,10.0,North,8.1,-,N/A,,Overcast,350,2012-12-05 21:43:00
4:54 PM,55.0,42.1,62,30.16,10.0,North,6.9,-,N/A,,Overcast,350,2012-12-05 21:54:00
5:54 PM,55.0,42.1,62,30.17,10.0,NNW,4.6,-,N/A,,Overcast,340,2012-12-05 22:54:00
6:54 PM,55.0,46.0,72,30.19,10.0,NNW,4.6,-,N/A,,Overcast,340,2012-12-05 23:54:00
7:54 PM,54.0,44.1,69,30.20,10.0,NNW,4.6,-,N/A,,Overcast,340,2012-12-06 00:54:00
8:54 PM,51.1,43.0,74,30.21,10.0,NNW,5.8,-,N/A,,Clear,340,2012-12-06 01:54:00
9:54 PM,48.9,43.0,80,30.21,10.0,Calm,Calm,-,N/A,,Clear,0,2012-12-06 02:54:00
10:54 PM,44.1,41.0,89,30.22,10.0,NW,3.5,-,N/A,,Clear,320,2012-12-06 03:54:00
11:54 PM,50.0,43.0,77,30.24,10.0,North,9.2,-,N/A,,Clear,360,2012-12-06 04:54:00